Active alerts


No alerts


weather webcam more information weather webcam


Thunder radar more information blitzortung!


Rain radar more information rain snow radar


Visit our other weather sites:

Template documentation
and downloads

And another site


Weather Underground History page Text

Daily Summary for October 16, 2018 Units:  English    Metric   Both
« Previous Day
Next Day »
Daily Weekly Monthly Yearly Custom
  Current: High: Low: Average:
Temperature: 45.2 °F TemperatureF °F 40.2 °F 46.7 °F
Dew Point: 32.1 °F DewpointF °F 28.3 °F 33.3 °F
Humidity: 60 % Humidity % 43 % 60 %
Wind Speed: 10 mph WindSpeedMPH mph 0 mph 4.3 mph
Wind Gust: 12 mph WindSpeedGustMPH mph - -
Wind:North - - West
Pressure: 30.12 in PressureIn in 29.97 in -
Precipitation: 0 in      
Historical Graphs
 
 
Tabular Data for October 16, 2018
Time Temperature Dew Point Pressure Wind Wind Speed Wind Gust Humidity Rainfall Rate (Hourly)
TemperatureF °F DewpointF °F PressureIn in Calm     Humidity % HourlyPrecipIn in
00:04 41.1 °F 28.3 °F 30.05 in SSW 6 mph 10 mph 60 % 0 in
00:09 41.1 °F 28.3 °F 30.05 in SSW 5 mph 12 mph 60 % 0 in
00:14 41.1 °F 28.3 °F 30.05 in SSE 11 mph 12 mph 60 % 0 in
00:19 41.1 °F 28.3 °F 30.05 in SW 2 mph 13 mph 60 % 0 in
00:24 41.1 °F 28.3 °F 30.04 in SW 6 mph 13 mph 60 % 0 in
00:29 41 °F 28.6 °F 30.04 in SSW 2 mph 10 mph 61 % 0 in
00:34 41 °F 28.6 °F 30.04 in SSW 1 mph 10 mph 61 % 0 in
00:39 41 °F 29 °F 30.04 in SW 1 mph 9 mph 62 % 0 in
00:44 41 °F 29 °F 30.03 in South 1 mph 8 mph 62 % 0 in
00:49 40.9 °F 28.9 °F 30.03 in WSW 6 mph 9 mph 62 % 0 in
00:54 40.9 °F 28.5 °F 30.02 in Calm   9 mph 61 % 0 in
00:59 40.8 °F 28.8 °F 30.02 in WSW 2 mph 10 mph 62 % 0 in
01:04 40.8 °F 28.8 °F 30.02 in South 1 mph 10 mph 62 % 0 in
01:09 40.9 °F 28.9 °F 30.02 in South 1 mph 8 mph 62 % 0 in
01:14 40.9 °F 28.9 °F 30.02 in SW 6 mph 9 mph 62 % 0 in
01:19 41 °F 29 °F 30.02 in South 1 mph 9 mph 62 % 0 in
01:24 41 °F 29 °F 30.01 in SSW 5 mph 9 mph 62 % 0 in
01:29 41 °F 29 °F 30.01 in WSW 2 mph 12 mph 62 % 0 in
01:34 41.1 °F 29.5 °F 30.01 in SW 1 mph 12 mph 63 % 0 in
01:39 41.1 °F 29.1 °F 30.01 in SSW 2 mph 10 mph 62 % 0 in
01:44 41.2 °F 29.2 °F 30.01 in West 2 mph 10 mph 62 % 0 in
01:49 41.3 °F 29.3 °F 30.00 in West 2 mph 9 mph 62 % 0 in
01:54 41.3 °F 29.3 °F 30.00 in SW 1 mph 9 mph 62 % 0 in
01:59 41.3 °F 29.3 °F 30.00 in West 3 mph 9 mph 62 % 0 in
02:04 41.2 °F 29.2 °F 30.00 in SSE 5 mph 9 mph 62 % 0 in
02:09 41.2 °F 29.2 °F 30.00 in SW 4 mph 8 mph 62 % 0 in
02:14 41.2 °F 29.2 °F 30.00 in Calm   8 mph 62 % 0 in
02:19 41.3 °F 29.3 °F 30.00 in West 13 mph 16 mph 62 % 0 in
02:24 41.6 °F 29.1 °F 30.00 in SSW 3 mph 16 mph 61 % 0 in
02:29 41.6 °F 29.1 °F 30.00 in SSW 1 mph 14 mph 61 % 0 in
02:34 41.6 °F 29.1 °F 30.00 in SW 3 mph 11 mph 61 % 0 in
02:39 41.5 °F 29 °F 29.99 in South 7 mph 11 mph 61 % 0 in
02:44 41.5 °F 29.4 °F 29.99 in WSW 5 mph 11 mph 62 % 0 in
02:49 41.4 °F 29.3 °F 29.98 in WSW 8 mph 9 mph 62 % 0 in
02:54 41.3 °F 29.3 °F 29.98 in WNW 4 mph 9 mph 62 % 0 in
02:59 41.2 °F 29.2 °F 29.99 in SW 10 mph 10 mph 62 % 0 in
03:04 41.1 °F 29.5 °F 29.98 in WSW 1 mph 10 mph 63 % 0 in
03:09 41.1 °F 29.5 °F 29.98 in West 2 mph 9 mph 63 % 0 in
03:14 41 °F 29.7 °F 29.98 in WSW 4 mph 9 mph 64 % 0 in
03:19 41 °F 29.7 °F 29.98 in SW 3 mph 7 mph 64 % 0 in
03:24 41 °F 29.7 °F 29.98 in WSW 1 mph 7 mph 64 % 0 in
03:29 41.1 °F 30.2 °F 29.98 in SSW 6 mph 7 mph 65 % 0 in
03:34 41.1 °F 30.2 °F 29.98 in SW 3 mph 7 mph 65 % 0 in
03:39 41.2 °F 30.3 °F 29.98 in WSW 2 mph 8 mph 65 % 0 in
03:44 41.2 °F 30.3 °F 29.98 in WSW 1 mph 8 mph 65 % 0 in
03:49 41.2 °F 30.3 °F 29.98 in West 4 mph 6 mph 65 % 0 in
03:54 41.3 °F 30.4 °F 29.98 in SW 3 mph 9 mph 65 % 0 in
03:59 41.3 °F 30.4 °F 29.98 in SSW 1 mph 9 mph 65 % 0 in
04:04 41.4 °F 30.9 °F 29.98 in West 2 mph 7 mph 66 % 0 in
04:09 41.4 °F 30.9 °F 29.98 in SW 1 mph 8 mph 66 % 0 in
04:14 41.4 °F 30.9 °F 29.98 in SW 2 mph 8 mph 66 % 0 in
04:19 41.4 °F 30.9 °F 29.98 in West 2 mph 7 mph 66 % 0 in
04:24 41.4 °F 30.9 °F 29.98 in WNW 1 mph 7 mph 66 % 0 in
04:29 41.4 °F 30.9 °F 29.98 in WSW 2 mph 7 mph 66 % 0 in
04:34 41.5 °F 31 °F 29.98 in West 2 mph 8 mph 66 % 0 in
04:39 41.5 °F 31 °F 29.98 in West 2 mph 8 mph 66 % 0 in
04:44 41.5 °F 31.4 °F 29.97 in Calm   9 mph 67 % 0 in
04:49 41.5 °F 31.4 °F 29.98 in Calm   9 mph 67 % 0 in
04:54 41.5 °F 31.4 °F 29.98 in West 8 mph 8 mph 67 % 0 in
04:59 41.5 °F 31.7 °F 29.98 in SSW 6 mph 9 mph 68 % 0 in
05:04 41.5 °F 31.4 °F 29.98 in SW 4 mph 9 mph 67 % 0 in
05:09 41.5 °F 31.7 °F 29.98 in WSW 2 mph 9 mph 68 % 0 in
05:14 41.5 °F 31.7 °F 29.98 in WSW 2 mph 5 mph 68 % 0 in
05:19 41.5 °F 31.7 °F 29.98 in SSW 3 mph 7 mph 68 % 0 in
05:24 41.5 °F 32.1 °F 29.98 in SW 3 mph 8 mph 69 % 0 in
05:29 41.4 °F 32 °F 29.98 in SW 1 mph 8 mph 69 % 0 in
05:34 41.4 °F 32 °F 29.97 in South 1 mph 7 mph 69 % 0 in
05:39 41.3 °F 31.9 °F 29.97 in SW 3 mph 4 mph 69 % 0 in
05:44 41.3 °F 32.2 °F 29.97 in SW 3 mph 4 mph 70 % 0 in
05:49 41.4 °F 32.3 °F 29.97 in SW 2 mph 4 mph 70 % 0 in
05:54 41.4 °F 32.3 °F 29.97 in South 2 mph 9 mph 70 % 0 in
05:59 41.5 °F 32.4 °F 29.98 in West 3 mph 9 mph 70 % 0 in
06:04 41.5 °F 32.4 °F 29.98 in WSW 1 mph 8 mph 70 % 0 in
06:09 41.4 °F 32.7 °F 29.98 in SSW 1 mph 5 mph 71 % 0 in
06:14 41.4 °F 32.7 °F 29.98 in WSW 2 mph 5 mph 71 % 0 in
06:19 41.3 °F 32.6 °F 29.98 in WSW 2 mph 7 mph 71 % 0 in
06:24 41.3 °F 32.6 °F 29.98 in West 2 mph 7 mph 71 % 0 in
06:29 41.3 °F 32.6 °F 29.98 in SW 2 mph 6 mph 71 % 0 in
06:34 41.2 °F 32.9 °F 29.98 in Calm   5 mph 72 % 0 in
06:39 41.1 °F 32.8 °F 29.98 in West 1 mph 4 mph 72 % 0 in
06:44 41 °F 32.7 °F 29.98 in West 1 mph 4 mph 72 % 0 in
06:49 40.9 °F 32.9 °F 29.98 in Calm   3 mph 73 % 0 in
06:54 40.8 °F 32.8 °F 29.98 in SSW 1 mph 7 mph 73 % 0 in
06:59 40.7 °F 32.7 °F 29.98 in SW 1 mph 7 mph 73 % 0 in
07:04 40.6 °F 33 °F 29.98 in Calm   7 mph 74 % 0 in
07:09 40.5 °F 32.9 °F 29.98 in Calm   8 mph 74 % 0 in
07:14 40.5 °F 33.2 °F 29.98 in West 2 mph 8 mph 75 % 0 in
07:19 40.5 °F 33.2 °F 29.98 in SW 3 mph 4 mph 75 % 0 in
07:24 40.5 °F 33.2 °F 29.98 in SW 2 mph 4 mph 75 % 0 in
07:29 40.5 °F 33.2 °F 29.98 in West 1 mph 4 mph 75 % 0 in
07:34 40.4 °F 33.1 °F 29.98 in WSW 2 mph 6 mph 75 % 0 in
07:39 40.5 °F 33.5 °F 29.98 in WSW 1 mph 6 mph 76 % 0 in
07:44 40.5 °F 33.5 °F 29.98 in SSW 2 mph 6 mph 76 % 0 in
07:49 40.4 °F 33.4 °F 29.99 in WSW 2 mph 7 mph 76 % 0 in
07:54 40.4 °F 33.8 °F 29.99 in WSW 1 mph 7 mph 77 % 0 in
07:59 40.4 °F 33.8 °F 29.99 in WSW 3 mph 7 mph 77 % 0 in
08:04 40.3 °F 33.7 °F 29.99 in NW 2 mph 7 mph 77 % 0 in
08:09 40.3 °F 33.7 °F 29.99 in WSW 3 mph 7 mph 77 % 0 in
08:14 40.3 °F 33.7 °F 30.00 in West 1 mph 7 mph 77 % 0 in
08:19 40.3 °F 33.7 °F 30.00 in WSW 3 mph 7 mph 77 % 0 in
08:24 40.2 °F 33.9 °F 30.00 in WSW 1 mph 7 mph 78 % 0 in
08:29 40.2 °F 33.9 °F 30.00 in WNW 7 mph 7 mph 78 % 0 in
08:34 40.4 °F 34.1 °F 30.01 in Calm   7 mph 78 % 0 in
08:39 40.6 °F 34.3 °F 30.01 in SSW 1 mph 7 mph 78 % 0 in
08:44 40.9 °F 34.6 °F 30.01 in West 3 mph 7 mph 78 % 0 in
08:49 41.1 °F 34.8 °F 30.01 in West 3 mph 7 mph 78 % 0 in
08:54 41.4 °F 34.7 °F 30.02 in WSW 1 mph 6 mph 77 % 0 in
08:59 41.6 °F 34.9 °F 30.02 in Calm   7 mph 77 % 0 in
09:04 41.9 °F 35.2 °F 30.02 in WSW 2 mph 7 mph 77 % 0 in
09:09 42 °F 35.3 °F 30.02 in WSW 2 mph 6 mph 77 % 0 in
09:14 42.1 °F 35.4 °F 30.02 in Calm   6 mph 77 % 0 in
09:19 42.3 °F 35.6 °F 30.02 in SW 3 mph 6 mph 77 % 0 in
09:24 42.6 °F 35.6 °F 30.02 in WNW 4 mph 6 mph 76 % 0 in
09:29 43 °F 36 °F 30.02 in WSW 6 mph 9 mph 76 % 0 in
09:34 43.4 °F 36 °F 30.02 in SW 3 mph 9 mph 75 % 0 in
09:39 43.7 °F 36.3 °F 30.03 in West 2 mph 8 mph 75 % 0 in
09:44 44.2 °F 36.8 °F 30.03 in West 3 mph 7 mph 75 % 0 in
09:49 44.6 °F 37.2 °F 30.03 in WNW 3 mph 7 mph 75 % 0 in
09:54 45.1 °F 37.3 °F 30.03 in WNW 3 mph 11 mph 74 % 0 in
09:59 45.6 °F 37.4 °F 30.03 in West 2 mph 11 mph 73 % 0 in
10:04 46 °F 37.1 °F 30.04 in West 6 mph 12 mph 71 % 0 in
10:09 46.3 °F 37.4 °F 30.04 in WNW 3 mph 14 mph 71 % 0 in
10:14 46.5 °F 37.6 °F 30.04 in WSW 1 mph 14 mph 71 % 0 in
10:19 46.9 °F 37.6 °F 30.04 in WNW 5 mph 11 mph 70 % 0 in
10:24 47.2 °F 37.5 °F 30.04 in NW 5 mph 12 mph 69 % 0 in
10:29 47.5 °F 37.8 °F 30.04 in NW 4 mph 16 mph 69 % 0 in
10:34 47.7 °F 38 °F 30.03 in West 6 mph 16 mph 69 % 0 in
10:39 47.9 °F 37.8 °F 30.04 in NW 3 mph 13 mph 68 % 0 in
10:44 48.2 °F 38.1 °F 30.04 in SW 1 mph 11 mph 68 % 0 in
10:49 48.5 °F 38 °F 30.04 in WNW 4 mph 11 mph 67 % 0 in
10:54 48.9 °F 38.8 °F 30.04 in NW 3 mph 11 mph 68 % 0 in
10:59 49.2 °F 38.3 °F 30.04 in West 3 mph 11 mph 66 % 0 in
11:04 49.7 °F 38.8 °F 30.04 in WNW 5 mph 12 mph 66 % 0 in
11:09 50.1 °F 38.8 °F 30.04 in NW 4 mph 14 mph 65 % 0 in
11:14 50.4 °F 38.7 °F 30.04 in West 6 mph 15 mph 64 % 0 in
11:19 50.9 °F 38.7 °F 30.04 in SSW 6 mph 15 mph 63 % 0 in
11:24 51.2 °F 38.6 °F 30.04 in WNW 9 mph 16 mph 62 % 0 in
11:29 51.5 °F 39.7 °F 30.04 in West 6 mph 16 mph 64 % 0 in
11:34 51.9 °F 39.3 °F 30.04 in NW 10 mph 12 mph 62 % 0 in
11:39 52.3 °F 39.2 °F 30.04 in NW 2 mph 13 mph 61 % 0 in
11:44 52.7 °F 38.8 °F 30.04 in WNW 5 mph 16 mph 59 % 0 in
11:49 52.9 °F 38.5 °F 30.04 in NW 4 mph 16 mph 58 % 0 in
11:54 53.2 °F 38.4 °F 30.04 in West 6 mph 13 mph 57 % 0 in
11:59 53.4 °F 38.1 °F 30.04 in WNW 4 mph 20 mph 56 % 0 in
12:04 53.6 °F 37.3 °F 30.04 in NW 11 mph 20 mph 54 % 0 in
12:09 53.7 °F 38.8 °F 30.04 in NW 9 mph 16 mph 57 % 0 in
12:14 54.1 °F 38.7 °F 30.04 in NW 4 mph 15 mph 56 % 0 in
12:19 54.6 °F 38.7 °F 30.04 in NW 3 mph 11 mph 55 % 0 in
12:24 54.8 °F 38 °F 30.04 in West 12 mph 13 mph 53 % 0 in
12:29 54.8 °F 38 °F 30.04 in NW 6 mph 15 mph 53 % 0 in
12:34 54.9 °F 37.6 °F 30.04 in WNW 7 mph 17 mph 52 % 0 in
12:39 54.8 °F 38.5 °F 30.04 in WNW 4 mph 17 mph 54 % 0 in
12:44 55.1 °F 38.3 °F 30.04 in WNW 10 mph 14 mph 53 % 0 in
12:49 55.2 °F 37.4 °F 30.03 in NW 11 mph 16 mph 51 % 0 in
12:54 55.1 °F 36.8 °F 30.04 in WNW 8 mph 18 mph 50 % 0 in
12:59 55.1 °F 37.3 °F 30.03 in NW 5 mph 18 mph 51 % 0 in
13:04 55 °F 36.2 °F 30.03 in WNW 4 mph 17 mph 49 % 0 in
13:09 55.3 °F 37.5 °F 30.03 in NNE 3 mph 17 mph 51 % 0 in
13:14 55.7 °F 37.3 °F 30.03 in WNW 3 mph 14 mph 50 % 0 in
13:19 56 °F 37.6 °F 30.03 in WNW 3 mph 14 mph 50 % 0 in
13:24 55.9 °F 37 °F 30.03 in SW 3 mph 20 mph 49 % 0 in
13:29 55.9 °F 36.5 °F 30.03 in WNW 7 mph 20 mph 48 % 0 in
13:34 55.7 °F 36.3 °F 30.03 in NNW 8 mph 16 mph 48 % 0 in
13:39 55.7 °F 35.8 °F 30.03 in West 3 mph 19 mph 47 % 0 in
13:44 55.5 °F 36.1 °F 30.03 in WNW 8 mph 20 mph 48 % 0 in
13:49 55.6 °F 35.7 °F 30.03 in WSW 4 mph 20 mph 47 % 0 in
13:54 55.7 °F 36.8 °F 30.03 in NNW 10 mph 17 mph 49 % 0 in
13:59 55.7 °F 36.8 °F 30.03 in West 6 mph 17 mph 49 % 0 in
14:04 55.9 °F 35.9 °F 30.03 in WNW 7 mph 17 mph 47 % 0 in
14:09 55.7 °F 34.7 °F 30.03 in WNW 17 mph 22 mph 45 % 0 in
14:14 55.5 °F 35 °F 30.03 in NNW 8 mph 22 mph 46 % 0 in
14:19 55.4 °F 34.9 °F 30.03 in NW 9 mph 17 mph 46 % 0 in
14:24 55.7 °F 34.7 °F 30.03 in West 7 mph 14 mph 45 % 0 in
14:29 55.6 °F 33.4 °F 30.03 in WSW 9 mph 17 mph 43 % 0 in
14:34 55.6 °F 34.6 °F 30.03 in SSW 3 mph 17 mph 45 % 0 in
14:39 55.7 °F 35.2 °F 30.02 in WSW 11 mph 18 mph 46 % 0 in
14:44 55.6 °F 35.1 °F 30.02 in WSW 1 mph 18 mph 46 % 0 in
14:49 55.9 °F 34.8 °F 30.02 in West 8 mph 18 mph 45 % 0 in
14:54 55.7 °F 34.1 °F 30.02 in NW 6 mph 20 mph 44 % 0 in
14:59 55.6 °F 34 °F 30.02 in West 7 mph 23 mph 44 % 0 in
15:04 55.7 °F 35.2 °F 30.02 in NNW 5 mph 23 mph 46 % 0 in
15:09 55.7 °F 34.1 °F 30.03 in NW 3 mph 13 mph 44 % 0 in
15:14 55.4 °F 34.4 °F 30.02 in West 6 mph 20 mph 45 % 0 in
15:19 55.2 °F 34.2 °F 30.03 in WNW 7 mph 20 mph 45 % 0 in
15:24 55.3 °F 34.9 °F 30.02 in North 4 mph 15 mph 46 % 0 in
15:29 55.5 °F 35 °F 30.03 in WNW 4 mph 14 mph 46 % 0 in
15:34 55.5 °F 33.9 °F 30.03 in West 4 mph 19 mph 44 % 0 in
15:39 55.2 °F 34.2 °F 30.02 in WNW 9 mph 19 mph 45 % 0 in
15:44 55.2 °F 34.2 °F 30.03 in NW 10 mph 16 mph 45 % 0 in
15:49 55.2 °F 33.6 °F 30.03 in WNW 2 mph 17 mph 44 % 0 in
15:54 55.2 °F 33.6 °F 30.03 in WSW 5 mph 18 mph 44 % 0 in
15:59 55.3 °F 34.3 °F 30.03 in WSW 4 mph 18 mph 45 % 0 in
16:04 54.9 °F 32.8 °F 30.03 in NNW 9 mph 16 mph 43 % 0 in
16:09 54.4 °F 32.3 °F 30.03 in NNW 8 mph 16 mph 43 % 0 in
16:14 54 °F 33.7 °F 30.03 in SW 3 mph 13 mph 46 % 0 in
16:19 53.9 °F 33.6 °F 30.04 in NW 6 mph 20 mph 46 % 0 in
16:24 53.8 °F 33.5 °F 30.04 in NW 9 mph 20 mph 46 % 0 in
16:29 53.6 °F 33.8 °F 30.04 in WSW 4 mph 15 mph 47 % 0 in
16:34 53.3 °F 33.6 °F 30.04 in WNW 6 mph 14 mph 47 % 0 in
16:39 53.2 °F 33.5 °F 30.04 in West 8 mph 16 mph 47 % 0 in
16:44 53.2 °F 34 °F 30.04 in NNW 3 mph 16 mph 48 % 0 in
16:49 53.3 °F 33.6 °F 30.04 in West 6 mph 17 mph 47 % 0 in
16:54 53.2 °F 33.5 °F 30.04 in West 7 mph 21 mph 47 % 0 in
16:59 52.8 °F 33.6 °F 30.04 in WNW 7 mph 21 mph 48 % 0 in
17:04 52.5 °F 33.4 °F 30.05 in WNW 12 mph 20 mph 48 % 0 in
17:09 52.3 °F 34.2 °F 30.04 in WNW 5 mph 21 mph 50 % 0 in
17:14 52.2 °F 34.1 °F 30.05 in NW 10 mph 21 mph 50 % 0 in
17:19 52.3 °F 34.2 °F 30.05 in North 2 mph 14 mph 50 % 0 in
17:24 52.4 °F 33.8 °F 30.05 in West 13 mph 16 mph 49 % 0 in
17:29 52.4 °F 33.3 °F 30.05 in NNW 10 mph 16 mph 48 % 0 in
17:34 52.3 °F 33.2 °F 30.05 in NNW 5 mph 15 mph 48 % 0 in
17:39 52.2 °F 33.1 °F 30.05 in WNW 3 mph 11 mph 48 % 0 in
17:44 52 °F 33.4 °F 30.05 in NW 4 mph 12 mph 49 % 0 in
17:49 51.8 °F 33.2 °F 30.05 in WNW 7 mph 14 mph 49 % 0 in
17:54 51.6 °F 33 °F 30.05 in NNW 11 mph 14 mph 49 % 0 in
17:59 51.4 °F 33.4 °F 30.06 in NW 3 mph 13 mph 50 % 0 in
18:04 51.3 °F 33.3 °F 30.06 in NW 3 mph 13 mph 50 % 0 in
18:09 51.2 °F 32.7 °F 30.06 in WNW 9 mph 16 mph 49 % 0 in
18:14 51.1 °F 32.6 °F 30.07 in WNW 10 mph 16 mph 49 % 0 in
18:19 50.9 °F 32.4 °F 30.07 in WSW 10 mph 14 mph 49 % 0 in
18:24 50.9 °F 32.9 °F 30.07 in West 7 mph 16 mph 50 % 0 in
18:29 50.7 °F 32.2 °F 30.07 in NNW 2 mph 16 mph 49 % 0 in
18:34 50.4 °F 32.4 °F 30.08 in WNW 5 mph 16 mph 50 % 0 in
18:39 50.1 °F 32.2 °F 30.08 in WNW 5 mph 16 mph 50 % 0 in
18:44 49.9 °F 32 °F 30.08 in NW 8 mph 18 mph 50 % 0 in
18:49 49.8 °F 32.4 °F 30.08 in WNW 6 mph 18 mph 51 % 0 in
18:54 49.5 °F 32.1 °F 30.09 in WNW 4 mph 15 mph 51 % 0 in
18:59 49.3 °F 32.4 °F 30.09 in NW 4 mph 15 mph 52 % 0 in
19:04 49.1 °F 32.2 °F 30.09 in WNW 4 mph 14 mph 52 % 0 in
19:09 48.9 °F 32 °F 30.09 in NNW 3 mph 13 mph 52 % 0 in
19:14 48.7 °F 32.8 °F 30.10 in NW 5 mph 15 mph 54 % 0 in
19:19 48.2 °F 33.2 °F 30.11 in NNW 12 mph 17 mph 56 % 0 in
19:24 47.7 °F 33.2 °F 30.11 in NW 2 mph 17 mph 57 % 0 in
19:29 47.2 °F 32.7 °F 30.11 in NNW 2 mph 19 mph 57 % 0 in
19:34 46.7 °F 32.7 °F 30.11 in NW 14 mph 19 mph 58 % 0 in
19:39 46.4 °F 32.8 °F 30.12 in NW 1 mph 14 mph 59 % 0 in
19:44 46.1 °F 32.6 °F 30.12 in West 8 mph 12 mph 59 % 0 in
19:49 45.7 °F 32.6 °F 30.12 in NW 5 mph 11 mph 60 % 0 in
19:54 45.5 °F 32.4 °F 30.12 in NW 2 mph 11 mph 60 % 0 in
19:59 45.2 °F 32.1 °F 30.12 in North 10 mph 12 mph 60 % 0 in
Edina, Minnesota
Compliments of Weather Underground - 4 mb

Script developed by  Jim McMurry - jmcmurry@mwt.net Adapted for the template by  Wim van der Kuil - Leuven-Template.eu

You find our weather info also at:

Weather Underground

Midwestern Weather Network

Citizen Weather Observer Program (CWOP)

HAMweather, WeatherForYou, PWS Weather

Equipment we use:

Weather-station
Davis VP2

Weather-program
Cumulus

Davis VP2

Cumulus